Hot Springs, VA

8:09 AM EST on February 19, 2017 (GMT -0500)
Ingalls

Weather History for KHSP - April, 2012

Change the Weather History Date:

Saturday, April 21, 2012

  Actual Average Record
Temperature  
Mean Temperature 55 °F -  
Max Temperature 64 °F 56 °F 69 °F (2005)
Min Temperature 46 °F 39 °F 28 °F (2013)
Degree Days  
Heating Degree Days 10    
Growing Degree Days 5 (Base 50)    
Moisture  
Dew Point 49 °F    
Average Humidity 86    
Maximum Humidity 100    
Minimum Humidity 56    
Precipitation  
Precipitation 0.21 in - - ()
Sea Level Pressure  
Sea Level Pressure 29.87 in    
Wind  
Wind Speed 9 mph (West)    
Max Wind Speed 20 mph    
Max Gust Speed 25 mph    
Visibility 10 miles    
Events Fog , Rain , Thunderstorm    
Averages and records for this station are not official NWS values.
T = Trace of Precipitation, MM = Missing Value Source: NWS Daily Summary

Daily Weather History Graph

Daily Weather History Graph

Search for Another Location

Airport or City:

Trip Planner

Search our weather history database for the weather conditions in past years. The results will help you decide how hot, cold, wet, or windy it might be!

Date:

Astronomy

Apr. 21, 2012 Rise Set
Actual Time 6:35 AM EDT 8:01 PM EDT
Civil Twilight 6:07 AM EDT 8:28 PM EDT
Nautical Twilight 5:34 AM EDT 9:02 PM EDT
Astronomical Twilight 4:59 AM EDT 9:37 PM EDT
Moon 6:30 AM EDT (4/21) 8:39 PM EDT (4/21)
Length of Visible Light 14h 21m
Length of Day
13h 26m
New Moon, 0% of the Moon is Illuminated
Apr 21
New Moon
Apr 29
First Quarter
May 5
Full
May 12
Last Quarter
May 20
New

Hourly Weather History & Observations

Time (EDT) Temp. Windchill Dew Point Humidity Pressure Visibility Wind Dir Wind Speed Gust Speed Precip Events Conditions
12:18 AM 53.6 °F - 48.2 °F 82% 29.93 in 10.0 mi SSW 4.6 mph - N/A   Scattered Clouds
12:36 AM 53.6 °F - 48.2 °F 82% 29.93 in 10.0 mi South 5.8 mph - N/A   Scattered Clouds
12:56 AM 53.6 °F - 48.2 °F 82% 29.93 in 10.0 mi SW 9.2 mph - N/A   Clear
1:16 AM 53.6 °F - 48.2 °F 82% 29.92 in 10.0 mi SW 6.9 mph - N/A   Clear
1:36 AM 53.6 °F - 48.2 °F 82% 29.92 in 10.0 mi SW 6.9 mph - N/A   Clear
1:56 AM 53.6 °F - 48.2 °F 82% 29.92 in 10.0 mi SW 5.8 mph - N/A   Clear
2:18 AM 51.8 °F - 48.2 °F 88% 29.92 in 10.0 mi SW 8.1 mph - N/A   Clear
2:36 AM 51.8 °F - 50.0 °F 94% 29.91 in 10.0 mi WSW 10.4 mph - N/A   Clear
2:56 AM 51.8 °F - 50.0 °F 94% 29.90 in 10.0 mi WSW 9.2 mph - N/A   Clear
3:16 AM 51.8 °F - 48.2 °F 88% 29.89 in 10.0 mi SW 10.4 mph - N/A   Clear
3:36 AM 51.8 °F - 50.0 °F 94% 29.90 in 10.0 mi WSW 10.4 mph - N/A   Scattered Clouds
3:56 AM 51.8 °F - 50.0 °F 94% 29.90 in 10.0 mi WSW 11.5 mph - N/A   Mostly Cloudy
4:18 AM 53.6 °F - 50.0 °F 88% 29.89 in 10.0 mi WSW 10.4 mph - N/A   Overcast
4:36 AM 53.6 °F - 50.0 °F 88% 29.89 in 10.0 mi WSW 12.7 mph - N/A   Overcast
4:56 AM 53.6 °F - 50.0 °F 88% 29.89 in 10.0 mi WSW 13.8 mph - N/A   Overcast
5:16 AM 53.6 °F - 50.0 °F 88% 29.89 in 10.0 mi WSW 12.7 mph - N/A   Mostly Cloudy
5:36 AM 51.8 °F - 48.2 °F 88% 29.88 in 10.0 mi WSW 11.5 mph - N/A   Scattered Clouds
5:56 AM 51.8 °F - 48.2 °F 88% 29.88 in 10.0 mi WSW 11.5 mph - N/A   Scattered Clouds
6:18 AM 51.8 °F - 48.2 °F 88% 29.87 in 10.0 mi WSW 11.5 mph - N/A   Scattered Clouds
6:56 AM 51.8 °F - 48.2 °F 88% 29.87 in 10.0 mi WSW 11.5 mph - N/A   Clear
7:16 AM 53.6 °F - 48.2 °F 82% 29.87 in 10.0 mi West 10.4 mph - N/A   Clear
7:36 AM 53.6 °F - 48.2 °F 82% 29.87 in 10.0 mi West 9.2 mph - N/A   Clear
7:56 AM 53.6 °F - 48.2 °F 82% 29.87 in 10.0 mi West 9.2 mph - N/A   Scattered Clouds
8:16 AM 55.4 °F - 50.0 °F 82% 29.87 in 10.0 mi West 11.5 mph - N/A   Mostly Cloudy
8:38 AM 55.4 °F - 50.0 °F 82% 29.88 in 10.0 mi West 10.4 mph - N/A   Overcast
8:56 AM 55.4 °F - 50.0 °F 82% 29.88 in 10.0 mi West 10.4 mph - N/A   Overcast
9:16 AM 55.4 °F - 50.0 °F 82% 29.88 in 10.0 mi West 10.4 mph - N/A   Overcast
9:36 AM 55.4 °F - 50.0 °F 82% 29.88 in 10.0 mi West 10.4 mph - N/A   Overcast
9:56 AM 55.4 °F - 50.0 °F 82% 29.89 in 10.0 mi West 11.5 mph - N/A   Overcast
10:16 AM 55.4 °F - 50.0 °F 82% 29.88 in 10.0 mi West 10.4 mph - N/A   Overcast
10:58 AM 60.8 °F - 51.8 °F 72% 29.88 in 10.0 mi West 10.4 mph 18.4 mph N/A   Scattered Clouds
11:18 AM 59.0 °F - 51.8 °F 77% 29.88 in 10.0 mi WSW 11.5 mph - N/A   Mostly Cloudy
11:36 AM 60.8 °F - 51.8 °F 72% 29.87 in 10.0 mi WSW 9.2 mph - N/A   Mostly Cloudy
11:56 AM 62.6 °F - 51.8 °F 68% 29.87 in 10.0 mi SW 8.1 mph - N/A   Mostly Cloudy
12:16 PM 60.8 °F - 50.0 °F 68% 29.86 in 10.0 mi West 9.2 mph - N/A   Mostly Cloudy
12:36 PM 62.6 °F - 50.0 °F 63% 29.86 in 10.0 mi West 8.1 mph 16.1 mph N/A   Mostly Cloudy
12:58 PM 62.6 °F - 48.2 °F 59% 29.84 in 10.0 mi West 11.5 mph - N/A   Mostly Cloudy
1:16 PM 64.4 °F - 50.0 °F 59% 29.84 in 10.0 mi WSW 12.7 mph - N/A   Mostly Cloudy
1:38 PM 64.4 °F - 48.2 °F 56% 29.83 in 10.0 mi WSW 9.2 mph 16.1 mph N/A   Scattered Clouds
1:56 PM 60.8 °F - 48.2 °F 63% 29.82 in 7.0 mi West 9.2 mph - N/A   Mostly Cloudy
2:16 PM 59.0 °F - 51.8 °F 77% 29.83 in 4.0 mi West 13.8 mph 18.4 mph N/A Rain Rain
2:36 PM 57.2 °F - 51.8 °F 82% 29.83 in 7.0 mi West 18.4 mph 23.0 mph N/A Thunderstorm Overcast
2:56 PM 53.6 °F - 51.8 °F 94% 29.85 in 10.0 mi West 19.6 mph 25.3 mph 0.07 in Rain , Thunderstorm Thunderstorms and Rain
3:16 PM 53.6 °F - 53.6 °F 100% 29.84 in 10.0 mi West 15.0 mph - 0.13 in Rain Light Rain
3:38 PM 53.6 °F - 53.6 °F 100% 29.83 in 2.0 mi WNW 11.5 mph - 0.13 in   Overcast
3:56 PM 53.6 °F - 53.6 °F 100% 29.83 in 7.0 mi WNW 11.5 mph - N/A   Overcast
4:16 PM 51.8 °F - 51.8 °F 100% 29.83 in 0.2 mi NW 8.1 mph - N/A Fog Fog
4:36 PM 51.8 °F - 51.8 °F 100% 29.83 in 10.0 mi NW 5.8 mph - N/A   Overcast
4:56 PM 51.8 °F - 50.0 °F 94% 29.84 in 10.0 mi NW 9.2 mph - N/A   Overcast
5:16 PM 50.0 °F - 48.2 °F 94% 29.84 in 10.0 mi NW 16.1 mph 23.0 mph N/A   Overcast
5:38 PM 48.2 °F - 46.4 °F 93% 29.84 in 10.0 mi WNW 16.1 mph 23.0 mph 0.01 in Rain Light Rain
5:56 PM 48.2 °F - 46.4 °F 93% 29.83 in 10.0 mi WNW 16.1 mph 24.2 mph N/A   Light Drizzle
6:16 PM 48.2 °F - 46.4 °F 93% 29.84 in 10.0 mi WNW 13.8 mph 18.4 mph N/A Thunderstorm Mostly Cloudy
6:36 PM 48.2 °F - 44.6 °F 87% 29.85 in 10.0 mi NW 8.1 mph - N/A   Overcast
6:56 PM 48.2 °F - 44.6 °F 87% 29.85 in 10.0 mi WNW 10.4 mph - N/A   Scattered Clouds
7:16 PM 48.2 °F - 44.6 °F 87% 29.85 in 10.0 mi NW 6.9 mph - N/A   Scattered Clouds
7:36 PM 48.2 °F - 44.6 °F 87% 29.85 in 10.0 mi NW 8.1 mph - N/A   Scattered Clouds
7:56 PM 48.2 °F - 44.6 °F 87% 29.86 in 10.0 mi NW 8.1 mph - N/A   Scattered Clouds
8:16 PM 46.4 °F 42.4 °F 46.4 °F 100% 29.86 in 10.0 mi WNW 8.1 mph - N/A   Mostly Cloudy
8:36 PM 46.4 °F 41.5 °F 44.6 °F 93% 29.86 in 10.0 mi WNW 10.4 mph - N/A   Mostly Cloudy
8:56 PM 46.4 °F 40.7 °F 44.6 °F 93% 29.86 in 10.0 mi WNW 12.7 mph 17.3 mph N/A   Mostly Cloudy
9:16 PM 46.4 °F 41.1 °F 46.4 °F 100% 29.86 in 10.0 mi NW 11.5 mph - N/A   Overcast
9:38 PM 46.4 °F 41.5 °F 46.4 °F 100% 29.86 in 10.0 mi WNW 10.4 mph - N/A   Overcast
9:56 PM 46.4 °F 41.5 °F 46.4 °F 100% 29.86 in 10.0 mi WNW 10.4 mph - N/A   Overcast
10:16 PM 46.4 °F 42.4 °F 44.6 °F 93% 29.87 in 10.0 mi WNW 8.1 mph - N/A   Overcast
10:36 PM 46.4 °F 42.9 °F 44.6 °F 93% 29.87 in 10.0 mi NW 6.9 mph - N/A   Overcast
10:58 PM 46.4 °F 43.5 °F 44.6 °F 93% 29.86 in 10.0 mi NW 5.8 mph - N/A   Overcast
11:38 PM 46.4 °F 41.9 °F 44.6 °F 93% 29.85 in 10.0 mi NW 9.2 mph - N/A   Overcast
11:56 PM 46.4 °F 41.1 °F 44.6 °F 93% 29.84 in 10.0 mi NW 11.5 mph - N/A   Overcast